Location: Unspecified
(0.0000°N, 0.0000°E)
Time: 15:04:30
(UTC+00:00)

Kyokko - Pass Details

Date: 14 June 2023
Orbit: 634 x 3947 km, 65.4° (Epoch: 25 September)

Event Time Altitude Azimuth Distance (km) Brightness Sun altitude
Rises 18:19:33 0° 226° (SW) 3,996 10.5 -4.4°
Reaches altitude 10° 18:21:59 10° 235° (SW) 3,325 10.3 -5.0°
Maximum altitude 18:29:30 37° 300° (WNW) 2,672 10.1 -6.7°
Drops below altitude 10° 18:42:22 10° 1° (N) 5,651 11.2 -9.6°
Sets 18:48:08 0° 8° (N) 7,168 11.7 -11.0°
